Location: North Evanston
(42.0634°N, 87.6976°W)
Time: 20:02:37
(UTC+00:00)

Injun/Solrad 3 - Pass Details

Date: 11 May 2026
Orbit: 867 x 989 km, 66.8° (Epoch: 6 June)

Event Time Altitude Azimuth Distance (km) Brightness Sun altitude
Rises 23:29:22 0° 245° (WSW) 3,520 11.9 15.2°
Reaches altitude 10° 23:32:13 10° 257° (WSW) 2,602 11.7 14.7°
Maximum altitude 23:37:20 28° 315° (NW) 1,685 10.4 13.8°
Drops below altitude 10° 23:42:37 10° 13° (NNE) 2,685 10.4 12.8°
Sets 23:45:37 0° 25° (NNE) 3,654 10.9 12.3°
